Location: Newark
(47.5833°N, 8.1500°E)
Time: 17:34:39
(UTC+00:00)

Transit 2A - Pass Details

Date: 29 October 2020
Orbit: 595 x 964 km, 66.7° (Epoch: 29 November)

Event Time Altitude Azimuth Distance (km) Brightness Sun altitude
Rises 02:45:17 0° 266° (W) 3,648 - -34.3°
Reaches altitude 10° 02:48:34 10° 282° (WNW) 2,694 - -33.7°
Maximum altitude 02:53:15 21° 330° (NNW) 1,970 - -33.0°
Exits shadow 02:55:00 19° 352° (N) 2,065 8.2 -32.7°
Drops below altitude 10° 02:57:49 10° 18° (NNE) 2,600 9.1 -32.2°
Sets 03:00:56 0° 35° (NE) 3,486 10.1 -31.7°
